Weather History for Millville, NJ

Change the Weather History Date:

Sunday, December 1, 2013

  Actual Average Record
Temperature  
Mean Temperature 36 °F -  
Max Temperature 48 °F 49 °F 70 °F (2001)
Min Temperature 23 °F 31 °F 6 °F (1967)
Degree Days  
Heating Degree Days 30    
Moisture  
Dew Point 29 °F    
Average Humidity 76    
Maximum Humidity 96    
Minimum Humidity 48    
Precipitation  
Precipitation 0.00 in - - ()
Sea Level Pressure  
Sea Level Pressure 30.18 in    
Wind  
Wind Speed 1 mph (West)    
Max Wind Speed 7 mph    
Max Gust Speed -    
Visibility 10 miles    
Events      
Averages and records for this station are not official NWS values.
T = Trace of Precipitation, MM = Missing Value Source: NWS Daily Summary

Daily Weather History Graph

Daily Weather History Graph

Search for Another Location

Airport:

Trip Planner

Search our weather history database for the weather conditions in past years. The results will help you decide how hot, cold, wet, or windy it might be!

Date:

Astronomy

Dec. 01, 2013 Rise Set
Actual Time 7:01 AM EST 4:37 PM EST
Civil Twilight 6:31 AM EST 5:07 PM EST
Nautical Twilight 5:58 AM EST 5:40 PM EST
Astronomical Twilight 5:26 AM EST 6:12 PM EST
Moon 5:17 AM EST (12/1) 3:44 PM EST (12/1)
Length of Visible Light 10h 35m
Length of Day
9h 35m
Waning Crescent, 2% of the Moon is Illuminated
Dec 1
Waning Crescent
Dec 2
New
Dec 9
First Quarter
Dec 17
Full
Dec 25
Last Quarter

Hourly Weather History & Observations

Time (EST) Temp. Windchill Dew Point Humidity Pressure Visibility Wind Dir Wind Speed Gust Speed Precip Events Conditions
12:54 AM 34.0 °F - 26.1 °F 73% 30.34 in 10.0 mi Calm Calm - N/A   Scattered Clouds
1:31 AM 34.0 °F - 27.0 °F 75% 30.33 in 10.0 mi Calm Calm - N/A   Mostly Cloudy
1:54 AM 35.1 °F 32.2 °F 27.0 °F 72% 30.32 in 10.0 mi West 3.5 mph - N/A   Overcast
2:43 AM 33.1 °F - 26.1 °F 75% 30.31 in 10.0 mi Calm Calm - N/A   Partly Cloudy
2:54 AM 30.9 °F - 25.0 °F 79% 30.31 in 10.0 mi Calm Calm - N/A   Partly Cloudy
3:54 AM 28.0 °F - 25.0 °F 88% 30.28 in 10.0 mi Calm Calm - N/A   Partly Cloudy
4:54 AM 25.0 °F - 24.1 °F 96% 30.27 in 10.0 mi Calm Calm - N/A   Clear
5:54 AM 25.0 °F - 23.0 °F 92% 30.26 in 10.0 mi Calm Calm - N/A   Clear
6:54 AM 23.0 °F - 21.9 °F 96% 30.25 in 10.0 mi Calm Calm - N/A   Clear
7:54 AM 28.0 °F - 26.1 °F 92% 30.25 in 10.0 mi Calm Calm - N/A   Clear
8:54 AM 37.9 °F - 30.9 °F 76% 30.24 in 10.0 mi Calm Calm - N/A   Clear
9:54 AM 43.0 °F 39.5 °F 33.1 °F 68% 30.24 in 10.0 mi NW 5.8 mph - N/A   Clear
10:54 AM 45.0 °F 41.2 °F 32.0 °F 60% 30.21 in 10.0 mi WNW 6.9 mph - N/A   Clear
11:54 AM 46.9 °F - 30.9 °F 54% 30.17 in 10.0 mi Variable 6.9 mph - N/A   Clear
12:54 PM 48.9 °F - 30.0 °F 48% 30.14 in 10.0 mi Variable 5.8 mph - N/A   Clear
1:54 PM 48.9 °F - 32.0 °F 52% 30.11 in 10.0 mi West 5.8 mph - N/A   Clear
2:54 PM 48.0 °F - 30.9 °F 52% 30.10 in 10.0 mi WSW 5.8 mph - N/A   Scattered Clouds
3:54 PM 45.0 °F 41.2 °F 32.0 °F 60% 30.10 in 10.0 mi WSW 6.9 mph - N/A   Overcast
4:54 PM 43.0 °F - 33.1 °F 68% 30.09 in 10.0 mi Calm Calm - N/A   Overcast
5:54 PM 39.9 °F - 33.1 °F 77% 30.09 in 10.0 mi Calm Calm - N/A   Overcast
6:54 PM 35.1 °F - 30.0 °F 82% 30.09 in 10.0 mi Calm Calm - N/A   Clear
7:54 PM 36.0 °F - 32.0 °F 86% 30.08 in 10.0 mi Calm Calm - N/A   Overcast
8:54 PM 37.0 °F - 32.0 °F 82% 30.06 in 10.0 mi Calm Calm - N/A   Overcast
9:54 PM 36.0 °F - 33.1 °F 89% 30.05 in 10.0 mi Calm Calm - N/A   Overcast
10:54 PM 33.1 °F - 30.9 °F 92% 30.05 in 10.0 mi Calm Calm - N/A   Partly Cloudy
11:54 PM 30.0 °F - 28.0 °F 92% 30.04 in 10.0 mi Calm Calm - N/A   Clear